TIB1025 SBSP-SBAT

Flight info

Callsign TIB1025
Flight time N/A
Altitude 32000
Route GERTU UM417 PAMOT
Aircraft E75L/M-SDE3GILORVW/S

Departure

Time 2026-05-06 03:05
Airport Congonhas–Deputado Freitas Nobre Airport (SBSP)

Arrival

Time N/A
Airport Piloto Osvaldo Marques Dias Airport (SBAT)
Time Latitude Longitude Altitude Speed Heading
2026-05-06 02:34 -23.62942 -46.65807 2612 ft 0 kts 328°
2026-05-06 02:54 -23.62941 -46.65807 2612 ft 0 kts 328°
2026-05-06 02:54 -23.62953 -46.65799 2613 ft 2 kts 334°
2026-05-06 02:55 -23.62967 -46.65795 2613 ft 2 kts 357°
2026-05-06 02:55 -23.62982 -46.65797 2613 ft 2 kts 20°
2026-05-06 02:55 -23.62995 -46.65805 2614 ft 2 kts 41°
2026-05-06 02:55 -23.63003 -46.65814 2613 ft 0 kts 56°
2026-05-06 02:56 -23.63003 -46.65815 2613 ft 0 kts 56°
2026-05-06 02:59 -23.63002 -46.65814 2613 ft 1 kts 56°
2026-05-06 02:59 -23.62989 -46.65791 2614 ft 6 kts 57°
2026-05-06 02:59 -23.62956 -46.65745 2614 ft 7 kts 54°
2026-05-06 02:59 -23.62927 -46.65698 2615 ft 6 kts 59°
2026-05-06 03:00 -23.62909 -46.65665 2616 ft 4 kts 59°
2026-05-06 03:00 -23.62892 -46.65636 2617 ft 4 kts 58°
2026-05-06 03:00 -23.62865 -46.65614 2618 ft 7 kts 356°
2026-05-06 03:00 -23.62810 -46.65656 2616 ft 11 kts 325°
2026-05-06 03:01 -23.62730 -46.65712 2613 ft 15 kts 327°
2026-05-06 03:01 -23.62646 -46.65768 2609 ft 10 kts 324°
2026-05-06 03:01 -23.62573 -46.65821 2605 ft 14 kts 330°
2026-05-06 03:01 -23.62481 -46.65883 2601 ft 17 kts 328°
2026-05-06 03:02 -23.62379 -46.65954 2594 ft 13 kts 327°
2026-05-06 03:02 -23.62293 -46.66013 2588 ft 10 kts 328°
2026-05-06 03:02 -23.62228 -46.66052 2584 ft 4 kts 332°
2026-05-06 03:02 -23.62185 -46.66079 2582 ft 8 kts 328°
2026-05-06 03:03 -23.62120 -46.66121 2576 ft 13 kts 330°
2026-05-06 03:03 -23.62033 -46.66112 2567 ft 13 kts 56°
2026-05-06 03:03 -23.62049 -46.66072 2569 ft 0 kts 152°
2026-05-06 03:04 -23.62047 -46.66072 2569 ft 0 kts 152°
2026-05-06 03:04 -23.62072 -46.66058 2571 ft 20 kts 151°
2026-05-06 03:04 -23.62374 -46.65849 2596 ft 80 kts 147°
2026-05-06 03:04 -23.63017 -46.65403 2625 ft 132 kts 147°
2026-05-06 03:05 -23.63832 -46.64839 2986 ft 137 kts 146°
2026-05-06 03:05 -23.64758 -46.64419 3173 ft 163 kts 174°
2026-05-06 03:05 -23.65988 -46.64377 3391 ft 189 kts 179°
2026-05-06 03:05 -23.67453 -46.64400 3524 ft 223 kts 181°
2026-05-06 03:06 -23.69043 -46.64471 4100 ft 233 kts 182°
2026-05-06 03:06 -23.70635 -46.64568 4953 ft 227 kts 182°
2026-05-06 03:06 -23.72172 -46.64675 5769 ft 220 kts 182°
2026-05-06 03:06 -23.73618 -46.65077 6424 ft 222 kts 215°
2026-05-06 03:07 -23.74645 -46.66379 7021 ft 226 kts 236°
2026-05-06 03:07 -23.75484 -46.67791 7420 ft 230 kts 236°
2026-05-06 03:07 -23.76404 -46.69345 7487 ft 256 kts 236°
2026-05-06 03:07 -23.77428 -46.71081 7502 ft 282 kts 237°
2026-05-06 03:08 -23.78506 -46.72916 7482 ft 292 kts 237°
2026-05-06 03:08 -23.79627 -46.74780 7596 ft 299 kts 236°
2026-05-06 03:08 -23.80785 -46.76680 8122 ft 302 kts 236°
2026-05-06 03:08 -23.81940 -46.78575 8814 ft 298 kts 236°
2026-05-06 03:09 -23.83083 -46.80449 9480 ft 296 kts 236°
2026-05-06 03:09 -23.84219 -46.82315 10063 ft 297 kts 236°
2026-05-06 03:09 -23.85373 -46.84209 10600 ft 300 kts 236°
2026-05-06 03:09 -23.86497 -46.86150 11053 ft 307 kts 245°
2026-05-06 03:10 -23.86874 -46.88481 11403 ft 317 kts 276°
2026-05-06 03:10 -23.86131 -46.90785 11800 ft 324 kts 301°
2026-05-06 03:10 -23.84944 -46.92896 12256 ft 329 kts 301°
2026-05-06 03:10 -23.83752 -46.95058 12675 ft 335 kts 301°
2026-05-06 03:11 -23.82553 -46.97254 13164 ft 339 kts 300°
2026-05-06 03:11 -23.81345 -46.99474 13646 ft 343 kts 300°
2026-05-06 03:11 -23.80119 -47.01732 14197 ft 344 kts 300°
2026-05-06 03:11 -23.78903 -47.03972 14743 ft 346 kts 300°
2026-05-06 03:12 -23.77668 -47.06245 15308 ft 347 kts 299°
2026-05-06 03:12 -23.76448 -47.08489 15820 ft 349 kts 299°
2026-05-06 03:12 -23.75183 -47.10782 16300 ft 351 kts 304°
2026-05-06 03:12 -23.73382 -47.12589 16716 ft 358 kts 330°
2026-05-06 03:13 -23.71017 -47.13458 17145 ft 362 kts 347°
2026-05-06 03:13 -23.68539 -47.14015 17620 ft 364 kts 347°
2026-05-06 03:13 -23.66021 -47.14573 18040 ft 367 kts 347°
2026-05-06 03:13 -23.63495 -47.15129 18465 ft 370 kts 347°
2026-05-06 03:14 -23.60954 -47.15687 18875 ft 373 kts 347°
2026-05-06 03:14 -23.58413 -47.16244 19330 ft 374 kts 347°
2026-05-06 03:14 -23.55826 -47.16812 19743 ft 376 kts 347°
2026-05-06 03:14 -23.53264 -47.17374 20159 ft 378 kts 347°
2026-05-06 03:15 -23.50644 -47.17948 20547 ft 381 kts 347°
2026-05-06 03:15 -23.48046 -47.18517 20946 ft 383 kts 347°
2026-05-06 03:15 -23.45438 -47.19088 21279 ft 386 kts 347°
2026-05-06 03:15 -23.42779 -47.19671 21657 ft 388 kts 347°
2026-05-06 03:16 -23.40115 -47.20254 22017 ft 390 kts 347°
2026-05-06 03:16 -23.37462 -47.20834 22362 ft 392 kts 346°
2026-05-06 03:16 -23.34742 -47.21429 22701 ft 395 kts 346°
2026-05-06 03:16 -23.32063 -47.22015 23026 ft 398 kts 346°
2026-05-06 03:17 -23.29330 -47.22612 23333 ft 400 kts 347°
2026-05-06 03:17 -23.26568 -47.23215 23662 ft 402 kts 346°
2026-05-06 03:17 -23.23786 -47.23822 23941 ft 406 kts 346°
2026-05-06 03:17 -23.21028 -47.24423 24252 ft 407 kts 346°
2026-05-06 03:18 -23.18214 -47.25036 24539 ft 410 kts 346°
2026-05-06 03:18 -23.15388 -47.25651 24827 ft 412 kts 346°
2026-05-06 03:18 -23.12578 -47.26263 25121 ft 414 kts 346°
2026-05-06 03:18 -23.09757 -47.26876 25414 ft 416 kts 346°
2026-05-06 03:19 -23.06873 -47.27504 25689 ft 418 kts 346°
2026-05-06 03:19 -23.04006 -47.28127 25927 ft 421 kts 346°
2026-05-06 03:19 -23.01111 -47.28756 26169 ft 424 kts 346°
2026-05-06 03:19 -22.98209 -47.29387 26431 ft 426 kts 346°
2026-05-06 03:20 -22.92380 -47.30652 26951 ft 430 kts 345°
2026-05-06 03:20 -22.89413 -47.31295 27205 ft 431 kts 345°
2026-05-06 03:20 -22.86459 -47.31937 27449 ft 433 kts 345°
2026-05-06 03:21 -22.83495 -47.32579 27648 ft 436 kts 345°
2026-05-06 03:21 -22.80489 -47.33230 27880 ft 437 kts 345°
2026-05-06 03:21 -22.77473 -47.33883 28084 ft 440 kts 345°
2026-05-06 03:21 -22.74456 -47.34536 28322 ft 441 kts 345°
2026-05-06 03:22 -22.71460 -47.35184 28524 ft 443 kts 345°
2026-05-06 03:22 -22.68466 -47.36068 28722 ft 440 kts 335°
2026-05-06 03:22 -22.65719 -47.37433 28911 ft 437 kts 325°
2026-05-06 03:22 -22.63206 -47.39276 29191 ft 431 kts 316°
2026-05-06 03:23 -22.60874 -47.41292 29428 ft 432 kts 316°
2026-05-06 03:23 -22.58498 -47.43299 29656 ft 433 kts 317°
2026-05-06 03:23 -22.56107 -47.45305 29882 ft 434 kts 317°
2026-05-06 03:23 -22.53693 -47.47324 30062 ft 436 kts 317°
2026-05-06 03:24 -22.51302 -47.49322 30261 ft 436 kts 316°
2026-05-06 03:24 -22.48885 -47.51340 30437 ft 438 kts 317°
2026-05-06 03:24 -22.46486 -47.53342 30582 ft 440 kts 316°
2026-05-06 03:24 -22.44046 -47.55378 30721 ft 442 kts 316°
2026-05-06 03:25 -22.41541 -47.57371 30887 ft 446 kts 320°
2026-05-06 03:25 -22.38987 -47.59263 31081 ft 446 kts 320°
2026-05-06 03:25 -22.36444 -47.61161 31289 ft 446 kts 319°
2026-05-06 03:25 -22.33860 -47.63095 31474 ft 447 kts 319°
2026-05-06 03:26 -22.31300 -47.65008 31638 ft 448 kts 320°
2026-05-06 03:26 -22.28749 -47.66917 31729 ft 451 kts 320°
2026-05-06 03:26 -22.26151 -47.68859 31878 ft 452 kts 319°
2026-05-06 03:26 -22.23549 -47.70802 32117 ft 451 kts 320°
2026-05-06 03:27 -22.20982 -47.72719 32239 ft 448 kts 319°
2026-05-06 03:27 -22.18418 -47.74633 32252 ft 452 kts 319°
2026-05-06 03:27 -22.13178 -47.78542 32263 ft 461 kts 320°
2026-05-06 03:28 -22.07841 -47.82519 32252 ft 470 kts 319°
2026-05-06 03:28 -22.02395 -47.86574 32258 ft 477 kts 319°
2026-05-06 03:29 -21.96938 -47.90633 32255 ft 479 kts 320°
2026-05-06 03:29 -21.91405 -47.94744 32238 ft 480 kts 320°
2026-05-06 03:30 -21.85953 -47.98792 32228 ft 481 kts 320°
2026-05-06 03:30 -21.80391 -48.02917 32224 ft 482 kts 319°
2026-05-06 03:31 -21.74932 -48.07055 32217 ft 482 kts 319°
2026-05-06 03:31 -21.69437 -48.11250 32211 ft 480 kts 318°
2026-05-06 03:32 -21.63975 -48.15416 32213 ft 480 kts 319°
2026-05-06 03:32 -21.58509 -48.19579 32211 ft 479 kts 318°
2026-05-06 03:33 -21.53070 -48.23719 32205 ft 479 kts 318°
2026-05-06 03:33 -21.47586 -48.27889 32197 ft 481 kts 318°
2026-05-06 03:34 -21.42125 -48.32037 32192 ft 481 kts 318°
2026-05-06 03:34 -21.36651 -48.36193 32204 ft 484 kts 318°
2026-05-06 03:35 -21.31165 -48.40351 32201 ft 485 kts 318°
2026-05-06 03:35 -21.25651 -48.44529 32199 ft 482 kts 318°
2026-05-06 03:36 -21.20161 -48.48684 32196 ft 483 kts 318°
2026-05-06 03:36 -21.14630 -48.52867 32198 ft 485 kts 318°
2026-05-06 03:37 -21.09139 -48.57014 32190 ft 485 kts 318°
2026-05-06 03:37 -21.03615 -48.61183 32185 ft 484 kts 318°
2026-05-06 03:38 -20.98110 -48.65334 32180 ft 483 kts 318°
2026-05-06 03:38 -20.92600 -48.69486 32189 ft 487 kts 318°
2026-05-06 03:39 -20.87025 -48.73682 32171 ft 488 kts 318°
2026-05-06 03:39 -20.81469 -48.77859 32168 ft 484 kts 318°
2026-05-06 03:40 -20.75920 -48.82028 32170 ft 485 kts 319°
2026-05-06 03:40 -20.70410 -48.86164 32167 ft 486 kts 319°
2026-05-06 03:41 -20.64854 -48.90329 32163 ft 486 kts 319°
2026-05-06 03:41 -20.59297 -48.94492 32166 ft 487 kts 319°
2026-05-06 03:42 -20.53750 -48.98644 32162 ft 488 kts 318°
2026-05-06 03:42 -20.48171 -49.02814 32164 ft 486 kts 318°
2026-05-06 03:43 -20.42652 -49.06938 32161 ft 487 kts 319°
2026-05-06 03:43 -20.37067 -49.11107 32160 ft 488 kts 319°
2026-05-06 03:44 -20.31481 -49.15272 32160 ft 487 kts 319°
2026-05-06 03:44 -20.25917 -49.19418 32160 ft 489 kts 319°
2026-05-06 03:45 -20.20378 -49.23541 32159 ft 488 kts 319°
2026-05-06 03:45 -20.14794 -49.27693 32161 ft 488 kts 319°
2026-05-06 03:46 -20.09221 -49.31835 32159 ft 489 kts 319°
2026-05-06 03:46 -20.03650 -49.35971 32158 ft 489 kts 319°
2026-05-06 03:47 -19.98054 -49.40122 32162 ft 489 kts 319°
2026-05-06 03:47 -19.92487 -49.44247 32160 ft 488 kts 319°
2026-05-06 03:48 -19.86896 -49.48387 32144 ft 489 kts 319°
2026-05-06 03:48 -19.81283 -49.52539 32150 ft 489 kts 319°
2026-05-06 03:49 -19.75693 -49.56671 32147 ft 490 kts 319°
2026-05-06 03:49 -19.70089 -49.60811 32143 ft 488 kts 319°
2026-05-06 03:50 -19.64530 -49.64912 32148 ft 488 kts 319°
2026-05-06 03:50 -19.58928 -49.69042 32153 ft 491 kts 319°
2026-05-06 03:51 -19.53292 -49.73193 32158 ft 490 kts 319°
2026-05-06 03:51 -19.47752 -49.77271 32161 ft 490 kts 319°
2026-05-06 03:52 -19.42145 -49.81393 32168 ft 488 kts 319°
2026-05-06 03:52 -19.36536 -49.85516 32168 ft 491 kts 319°
2026-05-06 03:53 -19.30923 -49.89635 32163 ft 489 kts 319°
2026-05-06 03:53 -19.25319 -49.93746 32172 ft 490 kts 319°
2026-05-06 03:54 -19.19725 -49.97846 32168 ft 489 kts 319°
2026-05-06 03:54 -19.14118 -50.01952 32164 ft 489 kts 320°
2026-05-06 03:55 -19.08508 -50.06056 32166 ft 488 kts 319°
2026-05-06 03:55 -19.02927 -50.10136 32158 ft 487 kts 319°
2026-05-06 03:56 -18.97366 -50.14198 32158 ft 488 kts 319°
2026-05-06 03:56 -18.91742 -50.18302 32159 ft 487 kts 319°
2026-05-06 03:57 -18.86170 -50.22366 32147 ft 489 kts 319°
2026-05-06 03:57 -18.80569 -50.26447 32144 ft 489 kts 320°
2026-05-06 03:58 -18.74974 -50.30520 32148 ft 489 kts 320°
2026-05-06 03:58 -18.69351 -50.34611 32143 ft 490 kts 320°
2026-05-06 03:59 -18.63729 -50.38697 32140 ft 489 kts 320°
2026-05-06 03:59 -18.58105 -50.42781 32144 ft 489 kts 320°
2026-05-06 04:00 -18.52489 -50.46856 32144 ft 489 kts 320°
2026-05-06 04:00 -18.46880 -50.50922 32150 ft 488 kts 320°
2026-05-06 04:01 -18.41310 -50.54954 32152 ft 489 kts 320°
2026-05-06 04:01 -18.35656 -50.59044 32162 ft 490 kts 320°
2026-05-06 04:02 -18.30056 -50.63091 32170 ft 488 kts 320°
2026-05-06 04:02 -18.24465 -50.67129 32191 ft 487 kts 320°
2026-05-06 04:03 -18.18849 -50.71182 32191 ft 487 kts 320°
2026-05-06 04:03 -18.13257 -50.75213 32189 ft 487 kts 320°
2026-05-06 04:04 -18.07677 -50.79234 32190 ft 488 kts 320°
2026-05-06 04:04 -18.02073 -50.83268 32179 ft 486 kts 320°
2026-05-06 04:05 -17.96471 -50.87297 32179 ft 487 kts 320°
2026-05-06 04:05 -17.90879 -50.91317 32187 ft 486 kts 320°
2026-05-06 04:06 -17.85288 -50.95332 32192 ft 486 kts 320°
2026-05-06 04:06 -17.79680 -50.99355 32192 ft 486 kts 320°
2026-05-06 04:07 -17.74098 -51.03357 32191 ft 487 kts 320°
2026-05-06 04:07 -17.68471 -51.07388 32184 ft 486 kts 321°
2026-05-06 04:08 -17.62884 -51.11386 32194 ft 486 kts 321°
2026-05-06 04:08 -17.57313 -51.15371 32193 ft 485 kts 321°
2026-05-06 04:09 -17.51716 -51.19371 32195 ft 484 kts 321°
2026-05-06 04:09 -17.46164 -51.23336 32193 ft 484 kts 321°
2026-05-06 04:10 -17.40572 -51.27326 32200 ft 484 kts 321°
2026-05-06 04:10 -17.35003 -51.31300 32198 ft 485 kts 321°
2026-05-06 04:11 -17.29425 -51.35282 32193 ft 485 kts 321°
2026-05-06 04:11 -17.23846 -51.39261 32206 ft 483 kts 321°
2026-05-06 04:12 -17.18302 -51.43212 32200 ft 485 kts 321°
2026-05-06 04:12 -17.12721 -51.47187 32191 ft 484 kts 321°
2026-05-06 04:13 -17.07157 -51.51146 32179 ft 484 kts 321°
2026-05-06 04:13 -17.01602 -51.55096 32173 ft 482 kts 321°
2026-05-06 04:14 -16.96044 -51.59046 32169 ft 482 kts 321°
2026-05-06 04:14 -16.90488 -51.62991 32170 ft 482 kts 321°
2026-05-06 04:15 -16.84901 -51.66956 32157 ft 483 kts 322°
2026-05-06 04:15 -16.79345 -51.70893 32156 ft 484 kts 322°
2026-05-06 04:16 -16.73749 -51.74854 32149 ft 483 kts 322°
2026-05-06 04:16 -16.68181 -51.78793 32144 ft 484 kts 322°
2026-05-06 04:17 -16.62629 -51.82717 32142 ft 483 kts 322°
2026-05-06 04:17 -16.57012 -51.86686 32138 ft 484 kts 322°
2026-05-06 04:18 -16.51454 -51.90609 32143 ft 482 kts 322°
2026-05-06 04:18 -16.45896 -51.94530 32136 ft 483 kts 322°
2026-05-06 04:19 -16.40334 -51.98450 32120 ft 482 kts 322°
2026-05-06 04:19 -16.34764 -52.02374 32113 ft 482 kts 322°
2026-05-06 04:20 -16.29209 -52.06278 32106 ft 483 kts 323°
2026-05-06 04:20 -16.23565 -52.10083 32103 ft 483 kts 323°
2026-05-06 04:21 -16.17919 -52.13892 32110 ft 482 kts 323°
2026-05-06 04:21 -16.12281 -52.17694 32100 ft 483 kts 323°
2026-05-06 04:22 -16.06646 -52.21491 32087 ft 482 kts 323°
2026-05-06 04:23 -15.98219 -52.27165 32072 ft 480 kts 323°
2026-05-06 04:23 -15.92618 -52.30933 32074 ft 480 kts 323°
2026-05-06 04:24 -15.86981 -52.34722 32081 ft 480 kts 323°
2026-05-06 04:24 -15.81348 -52.38506 32095 ft 481 kts 323°
2026-05-06 04:25 -15.75713 -52.42290 32094 ft 481 kts 323°
2026-05-06 04:25 -15.70116 -52.46044 32090 ft 480 kts 323°
2026-05-06 04:26 -15.64495 -52.49813 32100 ft 479 kts 324°
2026-05-06 04:26 -15.58854 -52.53592 32101 ft 480 kts 324°
2026-05-06 04:27 -15.53243 -52.57350 32097 ft 478 kts 324°
2026-05-06 04:27 -15.47654 -52.61089 32100 ft 479 kts 324°
2026-05-06 04:28 -15.42048 -52.64838 32086 ft 480 kts 324°
2026-05-06 04:28 -15.36413 -52.68603 32088 ft 480 kts 324°
2026-05-06 04:29 -15.30808 -52.72346 32088 ft 480 kts 324°
2026-05-06 04:29 -15.25196 -52.76092 32089 ft 480 kts 324°
2026-05-06 04:30 -15.19568 -52.79845 32086 ft 479 kts 324°
2026-05-06 04:30 -15.13933 -52.83601 32089 ft 478 kts 324°
2026-05-06 04:31 -15.08325 -52.87336 32089 ft 479 kts 324°
2026-05-06 04:31 -15.02723 -52.91066 32093 ft 480 kts 324°
2026-05-06 04:32 -14.97064 -52.94830 32097 ft 480 kts 324°
2026-05-06 04:32 -14.91435 -52.98573 32103 ft 481 kts 325°
2026-05-06 04:33 -14.85831 -53.02296 32099 ft 480 kts 325°
2026-05-06 04:33 -14.80203 -53.06033 32105 ft 480 kts 325°
2026-05-06 04:34 -14.74580 -53.09764 32103 ft 478 kts 325°
2026-05-06 04:34 -14.68881 -53.13380 32107 ft 479 kts 329°
2026-05-06 04:35 -14.63078 -53.16748 32105 ft 480 kts 328°
2026-05-06 04:35 -14.57257 -53.20147 32106 ft 479 kts 328°
2026-05-06 04:36 -14.51428 -53.23550 32102 ft 480 kts 328°
2026-05-06 04:36 -14.45605 -53.26947 32098 ft 481 kts 328°
2026-05-06 04:37 -14.39761 -53.30354 32091 ft 480 kts 328°
2026-05-06 04:37 -14.33932 -53.33751 32084 ft 480 kts 329°
2026-05-06 04:38 -14.28137 -53.37126 32080 ft 480 kts 329°
2026-05-06 04:38 -14.22290 -53.40528 32076 ft 479 kts 329°
2026-05-06 04:39 -14.16475 -53.43911 32061 ft 479 kts 329°
2026-05-06 04:39 -14.10630 -53.47308 32063 ft 479 kts 329°
2026-05-06 04:40 -14.05808 -53.50110 32058 ft 479 kts 329°